CFG321 LGKR-EDDF

Flight info

Callsign CFG321
Flight time N/A
Altitude 32000
Route OLGAT2B OLGAT DCT CRAYE/N0454F340 DCT GISAM DCT DARZA DCT SIMBA DCT AKINI T161 DEBHI DEBHI1B
Aircraft A321/M-SDE3FGHIRWY/LB1

Departure

Time 2026-05-04 14:10
Airport Corfu Ioannis Kapodistrias International Airport (LGKR)

Arrival

Time N/A
Airport Frankfurt Main Airport (EDDF)
Time Latitude Longitude Altitude Speed Heading
2026-05-04 13:51 39.60706 19.91343 9 ft 0 kts 79°
2026-05-04 14:01 39.60704 19.91333 9 ft 3 kts 78°
2026-05-04 14:01 39.60700 19.91307 11 ft 3 kts 76°
2026-05-04 14:01 39.60688 19.91257 10 ft 3 kts 64°
2026-05-04 14:02 39.60678 19.91236 10 ft 3 kts 43°
2026-05-04 14:02 39.60665 19.91224 12 ft 2 kts 358°
2026-05-04 14:02 39.60661 19.91224 11 ft 2 kts 350°
2026-05-04 14:04 39.60695 19.91215 9 ft 7 kts 347°
2026-05-04 14:04 39.60735 19.91203 9 ft 5 kts 347°
2026-05-04 14:05 39.60777 19.91191 9 ft 1 kts 347°
2026-05-04 14:05 39.60791 19.91187 9 ft 5 kts 348°
2026-05-04 14:05 39.60833 19.91176 9 ft 6 kts 348°
2026-05-04 14:06 39.60873 19.91166 9 ft 9 kts 349°
2026-05-04 14:06 39.60977 19.91142 11 ft 19 kts 350°
2026-05-04 14:06 39.61100 19.91111 10 ft 17 kts 349°
2026-05-04 14:06 39.61169 19.91093 10 ft 0 kts 346°
2026-05-04 14:08 39.61169 19.91092 10 ft 1 kts 345°
2026-05-04 14:08 39.61207 19.91035 10 ft 14 kts 285°
2026-05-04 14:08 39.61143 19.90974 10 ft 14 kts 168°
2026-05-04 14:09 39.60514 19.91137 8 ft 103 kts 169°
2026-05-04 14:09 39.59632 19.91361 7 ft 153 kts 169°
2026-05-04 14:10 39.57608 19.92491 1014 ft 159 kts 150°
2026-05-04 14:10 39.56678 19.93255 1526 ft 156 kts 152°
2026-05-04 14:10 39.55752 19.94054 1857 ft 166 kts 146°
2026-05-04 14:10 39.54828 19.95022 2171 ft 175 kts 135°
2026-05-04 14:11 39.53981 19.96178 2583 ft 178 kts 131°
2026-05-04 14:11 39.52342 19.98586 3486 ft 177 kts 133°
2026-05-04 14:11 39.51476 19.99715 3923 ft 177 kts 135°
2026-05-04 14:12 39.50553 20.00721 4363 ft 176 kts 145°
2026-05-04 14:12 39.49389 20.01269 4652 ft 186 kts 175°
2026-05-04 14:12 39.47303 19.99373 4921 ft 211 kts 260°
2026-05-04 14:13 39.47467 19.97496 5054 ft 221 kts 302°
2026-05-04 14:13 39.48488 19.95915 5205 ft 240 kts 317°
2026-05-04 14:13 39.49746 19.94346 5439 ft 260 kts 318°
2026-05-04 14:13 39.51089 19.92724 6029 ft 266 kts 319°
2026-05-04 14:14 39.52453 19.91084 6721 ft 269 kts 319°
2026-05-04 14:14 39.55193 19.87741 8124 ft 271 kts 318°
2026-05-04 14:14 39.56561 19.86053 8843 ft 272 kts 318°
2026-05-04 14:15 39.59303 19.82648 10261 ft 275 kts 318°
2026-05-04 14:15 39.62253 19.78975 10593 ft 315 kts 318°
2026-05-04 14:16 39.65589 19.74790 10961 ft 348 kts 317°
2026-05-04 14:16 39.67337 19.72583 11529 ft 353 kts 318°
2026-05-04 14:17 39.70883 19.68123 12693 ft 357 kts 318°
2026-05-04 14:17 39.72672 19.65873 13319 ft 360 kts 318°
2026-05-04 14:17 39.76288 19.61322 14449 ft 364 kts 318°
2026-05-04 14:18 39.78111 19.59028 14981 ft 366 kts 318°
2026-05-04 14:18 39.81753 19.54428 16026 ft 369 kts 318°
2026-05-04 14:19 39.85455 19.49747 17041 ft 373 kts 318°
2026-05-04 14:19 39.87319 19.47390 17545 ft 375 kts 318°
2026-05-04 14:19 39.89191 19.45022 18015 ft 377 kts 318°
2026-05-04 14:19 39.91082 19.42631 18460 ft 380 kts 318°
2026-05-04 14:20 39.92983 19.40223 18854 ft 383 kts 318°
2026-05-04 14:20 39.94899 19.37793 19270 ft 385 kts 318°
2026-05-04 14:20 39.96821 19.35353 19688 ft 387 kts 318°
2026-05-04 14:21 40.00695 19.30428 20511 ft 391 kts 318°
2026-05-04 14:21 40.02644 19.27947 20927 ft 392 kts 318°
2026-05-04 14:21 40.04602 19.25451 21338 ft 394 kts 318°
2026-05-04 14:21 40.06570 19.22944 21750 ft 396 kts 317°
2026-05-04 14:22 40.08545 19.20422 22152 ft 398 kts 317°
2026-05-04 14:22 40.09859 19.18742 22418 ft 399 kts 317°
2026-05-04 14:22 40.11848 19.16199 22811 ft 401 kts 317°
2026-05-04 14:22 40.13849 19.13643 23196 ft 403 kts 317°
2026-05-04 14:23 40.17886 19.08472 23835 ft 409 kts 317°
2026-05-04 14:23 40.19920 19.05862 24130 ft 411 kts 317°
2026-05-04 14:23 40.21965 19.03237 24453 ft 412 kts 317°
2026-05-04 14:24 40.24082 19.00706 24773 ft 412 kts 323°
2026-05-04 14:24 40.26472 18.98642 25092 ft 412 kts 332°
2026-05-04 14:24 40.29022 18.96909 25403 ft 414 kts 333°
2026-05-04 14:24 40.31583 18.95178 25714 ft 415 kts 333°
2026-05-04 14:25 40.34153 18.93441 26011 ft 416 kts 333°
2026-05-04 14:25 40.39315 18.89939 26599 ft 419 kts 332°
2026-05-04 14:25 40.41904 18.88171 26897 ft 420 kts 333°
2026-05-04 14:26 40.44500 18.86398 27166 ft 422 kts 332°
2026-05-04 14:26 40.47111 18.84615 27456 ft 423 kts 332°
2026-05-04 14:26 40.49721 18.82831 27876 ft 422 kts 332°
2026-05-04 14:26 40.52317 18.81054 28309 ft 420 kts 332°
2026-05-04 14:27 40.54897 18.79285 28736 ft 418 kts 332°
2026-05-04 14:27 40.57468 18.77522 29123 ft 416 kts 332°
2026-05-04 14:27 40.60033 18.75765 29503 ft 415 kts 332°
2026-05-04 14:27 40.62594 18.74014 29893 ft 414 kts 332°
2026-05-04 14:28 40.65143 18.72270 30279 ft 412 kts 332°
2026-05-04 14:28 40.67688 18.70524 30585 ft 412 kts 332°
2026-05-04 14:28 40.70226 18.68776 30858 ft 412 kts 332°
2026-05-04 14:28 40.72758 18.67027 31163 ft 411 kts 331°
2026-05-04 14:29 40.77809 18.63538 31785 ft 409 kts 331°
2026-05-04 14:29 40.82841 18.60064 32116 ft 407 kts 331°
2026-05-04 14:30 40.87852 18.56610 32122 ft 405 kts 331°
2026-05-04 14:31 40.95348 18.51418 32126 ft 406 kts 331°
2026-05-04 14:32 41.05351 18.44461 32120 ft 406 kts 331°
2026-05-04 14:32 41.10352 18.40971 32100 ft 406 kts 331°
2026-05-04 14:33 41.15328 18.37499 32105 ft 407 kts 331°
2026-05-04 14:33 41.20351 18.33988 32106 ft 408 kts 331°
2026-05-04 14:34 41.25379 18.30461 32122 ft 409 kts 331°
2026-05-04 14:34 41.30409 18.26923 32122 ft 409 kts 331°
2026-05-04 14:35 41.35441 18.23400 32125 ft 409 kts 331°
2026-05-04 14:35 41.40472 18.19856 32125 ft 409 kts 331°
2026-05-04 14:36 41.45501 18.16300 32118 ft 409 kts 331°
2026-05-04 14:36 41.50508 18.12705 32111 ft 408 kts 327°
2026-05-04 14:37 41.55250 18.08538 32122 ft 408 kts 326°
2026-05-04 14:37 41.59984 18.04343 32120 ft 408 kts 326°
2026-05-04 14:38 41.64710 18.00131 32121 ft 408 kts 326°
2026-05-04 14:38 41.69442 17.95913 32113 ft 408 kts 326°
2026-05-04 14:39 41.74171 17.91699 32113 ft 409 kts 326°
2026-05-04 14:39 41.78907 17.87476 32115 ft 409 kts 326°
2026-05-04 14:40 41.86015 17.81122 32122 ft 410 kts 326°
2026-05-04 14:40 41.90722 17.76903 32114 ft 410 kts 326°
2026-05-04 14:41 41.95682 17.73134 32097 ft 410 kts 331°
2026-05-04 14:42 42.05746 17.65864 32106 ft 411 kts 330°
2026-05-04 14:42 42.10785 17.62218 32108 ft 412 kts 331°
2026-05-04 14:43 42.15836 17.58562 32108 ft 412 kts 331°
2026-05-04 14:43 42.20892 17.54890 32102 ft 413 kts 330°
2026-05-04 14:44 42.25954 17.51215 32113 ft 413 kts 331°
2026-05-04 14:44 42.31023 17.47535 32122 ft 414 kts 331°
2026-05-04 14:45 42.36086 17.43837 32105 ft 414 kts 330°
2026-05-04 14:45 42.41147 17.40121 32110 ft 414 kts 330°
2026-05-04 14:46 42.46213 17.36411 32108 ft 415 kts 330°
2026-05-04 14:46 42.51297 17.32693 32112 ft 416 kts 330°
2026-05-04 14:47 42.56390 17.28955 32112 ft 417 kts 330°
2026-05-04 14:47 42.61487 17.25202 32118 ft 417 kts 330°
2026-05-04 14:48 42.66589 17.21436 32122 ft 417 kts 330°
2026-05-04 14:48 42.71690 17.17655 32118 ft 418 kts 330°
2026-05-04 14:49 42.76794 17.13874 32105 ft 418 kts 330°
2026-05-04 14:49 42.81899 17.10081 32121 ft 418 kts 330°
2026-05-04 14:50 42.87008 17.06287 32123 ft 418 kts 330°
2026-05-04 14:50 42.92116 17.02488 32109 ft 419 kts 330°
2026-05-04 14:51 42.97234 16.98660 32102 ft 420 kts 330°
2026-05-04 14:51 43.02360 16.94825 32110 ft 421 kts 330°
2026-05-04 14:52 43.07497 16.90990 32110 ft 421 kts 330°
2026-05-04 14:52 43.12636 16.87134 32114 ft 421 kts 330°
2026-05-04 14:53 43.17769 16.83271 32116 ft 421 kts 330°
2026-05-04 14:53 43.22906 16.79393 32105 ft 421 kts 330°
2026-05-04 14:54 43.28040 16.75516 32117 ft 421 kts 330°
2026-05-04 14:54 43.33175 16.71638 32105 ft 421 kts 330°
2026-05-04 14:55 43.38309 16.67749 32102 ft 422 kts 330°
2026-05-04 14:55 43.43453 16.63844 32095 ft 423 kts 330°
2026-05-04 14:56 43.48579 16.59947 32113 ft 424 kts 330°
2026-05-04 14:56 43.53748 16.56013 32115 ft 425 kts 330°
2026-05-04 14:57 43.58912 16.52059 32126 ft 425 kts 330°
2026-05-04 14:57 43.64084 16.48094 32119 ft 425 kts 330°
2026-05-04 14:58 43.69251 16.44132 32118 ft 425 kts 330°
2026-05-04 14:58 43.74418 16.40160 32117 ft 425 kts 330°
2026-05-04 14:59 43.79587 16.36192 32117 ft 425 kts 330°
2026-05-04 15:00 43.87341 16.30216 32097 ft 426 kts 330°
2026-05-04 15:00 43.92527 16.26203 32106 ft 427 kts 330°
2026-05-04 15:01 44.00310 16.20138 32108 ft 428 kts 330°
2026-05-04 15:01 44.05514 16.16093 32122 ft 429 kts 330°
2026-05-04 15:02 44.10718 16.12043 32114 ft 429 kts 329°
2026-05-04 15:02 44.15925 16.07978 32110 ft 430 kts 329°
2026-05-04 15:03 44.21149 16.03893 32094 ft 431 kts 329°
2026-05-04 15:03 44.26340 15.99821 32110 ft 431 kts 329°
2026-05-04 15:04 44.31599 15.95688 32113 ft 431 kts 329°
2026-05-04 15:04 44.36784 15.91605 32107 ft 430 kts 329°
2026-05-04 15:05 44.41999 15.87492 32091 ft 431 kts 329°
2026-05-04 15:05 44.47230 15.83366 32090 ft 432 kts 329°
2026-05-04 15:06 44.52469 15.79215 32092 ft 433 kts 329°
2026-05-04 15:07 44.60323 15.72961 32081 ft 433 kts 329°
2026-05-04 15:07 44.65559 15.68784 32091 ft 433 kts 329°
2026-05-04 15:08 44.70795 15.64619 32088 ft 433 kts 329°
2026-05-04 15:08 44.76036 15.60438 32088 ft 433 kts 329°
2026-05-04 15:09 44.81271 15.56235 32078 ft 433 kts 329°
2026-05-04 15:09 44.86510 15.52015 32077 ft 434 kts 329°
2026-05-04 15:10 44.93486 15.46408 32097 ft 434 kts 329°
2026-05-04 15:11 45.01344 15.40069 32067 ft 434 kts 328°
2026-05-04 15:11 45.06592 15.35820 32064 ft 435 kts 328°
2026-05-04 15:12 45.11839 15.31566 32072 ft 435 kts 328°
2026-05-04 15:12 45.17086 15.27298 32067 ft 435 kts 328°
2026-05-04 15:13 45.22336 15.23011 32081 ft 435 kts 328°
2026-05-04 15:13 45.27576 15.18728 32070 ft 435 kts 328°
2026-05-04 15:14 45.32820 15.14440 32066 ft 435 kts 328°
2026-05-04 15:14 45.38055 15.10141 32073 ft 435 kts 328°
2026-05-04 15:15 45.43290 15.05841 32074 ft 434 kts 328°
2026-05-04 15:15 45.48517 15.01531 32078 ft 434 kts 328°
2026-05-04 15:16 45.56579 14.95602 32060 ft 435 kts 333°
2026-05-04 15:17 45.64847 14.90146 32058 ft 437 kts 333°
2026-05-04 15:17 45.73063 14.84466 32062 ft 438 kts 332°
2026-05-04 15:18 45.78501 14.80658 32054 ft 438 kts 332°
2026-05-04 15:19 45.86758 14.74900 32053 ft 438 kts 332°
2026-05-04 15:19 45.94948 14.69176 32053 ft 439 kts 331°
2026-05-04 15:20 46.00440 14.65320 32055 ft 440 kts 332°
2026-05-04 15:20 46.05935 14.61455 32060 ft 440 kts 332°
2026-05-04 15:21 46.11434 14.57591 32067 ft 440 kts 332°
2026-05-04 15:22 46.19671 14.51768 32059 ft 440 kts 332°
2026-05-04 15:22 46.27916 14.45928 32062 ft 441 kts 332°
2026-05-04 15:23 46.33426 14.42015 32060 ft 442 kts 331°
2026-05-04 15:23 46.38940 14.38085 32059 ft 442 kts 331°
2026-05-04 15:24 46.49970 14.30203 32020 ft 442 kts 332°
2026-05-04 15:25 46.55481 14.26252 32020 ft 441 kts 331°
2026-05-04 15:26 46.63736 14.20316 31998 ft 442 kts 332°
2026-05-04 15:26 46.72021 14.14332 32004 ft 443 kts 332°
2026-05-04 15:27 46.80307 14.08329 32008 ft 443 kts 331°
2026-05-04 15:28 46.88589 14.02317 32015 ft 443 kts 331°
2026-05-04 15:29 46.96833 13.96291 32010 ft 445 kts 331°
2026-05-04 15:30 47.16210 13.82091 32002 ft 446 kts 331°
2026-05-04 15:31 47.24530 13.75962 32004 ft 446 kts 331°
2026-05-04 15:32 47.38389 13.65665 31967 ft 446 kts 331°
2026-05-04 15:34 47.52255 13.55342 31945 ft 446 kts 331°
2026-05-04 15:34 47.60557 13.49126 31929 ft 446 kts 330°
2026-05-04 15:35 47.68861 13.42872 31923 ft 447 kts 330°
2026-05-04 15:36 47.77172 13.36596 31912 ft 447 kts 330°
2026-05-04 15:36 47.82714 13.32399 31908 ft 447 kts 330°
2026-05-04 15:37 47.88259 13.28194 31906 ft 447 kts 330°
2026-05-04 15:37 47.93760 13.24016 31919 ft 447 kts 330°
2026-05-04 15:38 47.99300 13.19806 31906 ft 447 kts 330°
2026-05-04 15:38 48.04844 13.15565 31903 ft 447 kts 330°
2026-05-04 15:39 48.10387 13.11313 31902 ft 448 kts 330°
2026-05-04 15:40 48.18695 13.04928 31906 ft 448 kts 330°
2026-05-04 15:40 48.23860 12.99848 31905 ft 442 kts 315°
2026-05-04 15:41 48.28030 12.93109 31912 ft 441 kts 309°
2026-05-04 15:41 48.32102 12.86220 31907 ft 441 kts 309°
2026-05-04 15:42 48.36174 12.79305 31910 ft 442 kts 309°
2026-05-04 15:42 48.40240 12.72367 31918 ft 442 kts 308°
2026-05-04 15:43 48.44299 12.65431 31920 ft 441 kts 309°
2026-05-04 15:43 48.48351 12.58495 31921 ft 441 kts 308°
2026-05-04 15:44 48.52396 12.51553 31921 ft 440 kts 308°
2026-05-04 15:44 48.56434 12.44599 31920 ft 440 kts 308°
2026-05-04 15:45 48.60461 12.37633 31926 ft 440 kts 308°
2026-05-04 15:45 48.64490 12.30658 31928 ft 440 kts 308°
2026-05-04 15:46 48.68474 12.23743 31960 ft 439 kts 308°
2026-05-04 15:46 48.72438 12.16706 31951 ft 437 kts 303°
2026-05-04 15:47 48.75169 12.08633 31953 ft 429 kts 285°
2026-05-04 15:47 48.76345 11.99823 31946 ft 426 kts 277°
2026-05-04 15:48 48.77300 11.90942 31945 ft 427 kts 277°
2026-05-04 15:48 48.78720 11.77675 31936 ft 428 kts 277°
2026-05-04 15:49 48.79656 11.68756 31936 ft 429 kts 277°
2026-05-04 15:49 48.80591 11.59828 31938 ft 429 kts 277°
2026-05-04 15:50 48.81523 11.50876 31942 ft 429 kts 277°
2026-05-04 15:50 48.82447 11.41928 31951 ft 430 kts 277°
2026-05-04 15:51 48.83360 11.32956 31948 ft 430 kts 276°
2026-05-04 15:51 48.84904 11.24187 31944 ft 435 kts 292°
2026-05-04 15:52 48.88342 11.16597 31943 ft 442 kts 312°
2026-05-04 15:52 48.92880 11.10273 31949 ft 443 kts 314°
2026-05-04 15:53 48.95175 11.07136 31838 ft 445 kts 316°
2026-05-04 15:53 48.97520 11.04046 31609 ft 445 kts 316°
2026-05-04 15:53 48.99889 11.01002 31356 ft 447 kts 316°
2026-05-04 15:53 49.02273 10.97970 31106 ft 447 kts 317°
2026-05-04 15:54 49.04664 10.94926 30867 ft 447 kts 316°
2026-05-04 15:54 49.07042 10.91874 30620 ft 447 kts 316°
2026-05-04 15:54 49.09413 10.88801 30377 ft 448 kts 316°